{"data":{"norad_id":69676,"intl_designator":"2026-132G","name":"2026-132G","alt_names":[],"object_type":"UNKNOWN","status":"UNKNOWN","operator":null,"country":"TBD","launch_date":"2026-06-12","launch_site_code":"TANSC","launch_vehicle":null,"mission":null,"orbit_class":"UNKNOWN","rcs_meters":null,"size_class":null,"mass_kg":null,"dimensions":null,"purposes":[],"wikipedia_slug":null,"has_3d_model":false,"image_url":null,"decayed_at":null,"tle_current":{"epoch":"2026-07-08T10:26:01.192992Z","epoch_age_seconds":6430084,"freshness":"OLD","line1":"1 69676U 26132G   26189.43473603  .00006559  00000+0  42983-3 0  9997","line2":"2 69676  97.6875 253.0023 0024591 224.5551 135.3700 15.07805957  3973","mean_motion":15.07805957,"eccentricity":0.0024591,"inclination_deg":97.6875,"raan_deg":253.0023,"arg_perigee_deg":224.5551,"mean_anomaly_deg":135.37,"bstar":0.00042983,"rev_number":397,"period_min":95.503005099216,"perigee_km":525.88631442435,"apogee_km":559.92538737364,"semimajor_km":6921.042850899,"source":"CELESTRAK","updated_at":"2026-07-12T09:00:33.417547Z"}}}